TimeEST,TemperatureF,Dew PointF,Humidity,Sea Level PressureIn,VisibilityMPH,Wind Direction,Wind SpeedMPH,Gust SpeedMPH,PrecipitationIn,Events,Conditions,WindDirDegrees,DateUTC
12:53 AM,66.0,60.1,81,30.23,10.0,ENE,3.5,-,N/A,,Scattered Clouds,60,2012-11-12 05:53:00
1:53 AM,66.2,60.8,83,30.23,10.0,NE,3.5,-,N/A,,Mostly Cloudy,40,2012-11-12 06:53:00
2:53 AM,64.9,60.1,84,30.22,10.0,NE,3.5,-,N/A,,Scattered Clouds,40,2012-11-12 07:53:00
3:53 AM,64.0,60.1,87,30.21,10.0,ENE,3.5,-,N/A,,Scattered Clouds,60,2012-11-12 08:53:00
4:53 AM,64.0,60.1,87,30.20,10.0,Calm,Calm,-,N/A,,Partly Cloudy,0,2012-11-12 09:53:00
5:53 AM,64.0,60.1,87,30.21,10.0,Calm,Calm,-,N/A,,Scattered Clouds,0,2012-11-12 10:53:00
6:53 AM,64.0,60.1,87,30.22,10.0,NE,3.5,-,N/A,,Mostly Cloudy,50,2012-11-12 11:53:00
7:53 AM,66.0,62.1,87,30.24,10.0,Calm,Calm,-,N/A,,Scattered Clouds,0,2012-11-12 12:53:00
8:53 AM,70.0,63.0,78,30.25,10.0,Variable,3.5,-,N/A,,Scattered Clouds,0,2012-11-12 13:53:00
9:53 AM,75.9,64.0,67,30.26,10.0,ESE,5.8,-,N/A,,Scattered Clouds,110,2012-11-12 14:53:00
10:53 AM,78.1,64.0,62,30.25,10.0,Variable,4.6,-,N/A,,Scattered Clouds,0,2012-11-12 15:53:00
11:53 AM,80.1,62.1,54,30.22,10.0,Variable,5.8,-,N/A,,Scattered Clouds,0,2012-11-12 16:53:00
12:53 PM,81.0,59.0,47,30.19,10.0,Variable,5.8,-,N/A,,Mostly Cloudy,0,2012-11-12 17:53:00
1:53 PM,82.9,59.0,44,30.18,10.0,Variable,3.5,-,N/A,,Mostly Cloudy,0,2012-11-12 18:53:00
2:53 PM,82.0,57.9,44,30.16,10.0,NE,4.6,-,N/A,,Overcast,40,2012-11-12 19:53:00
3:53 PM,82.0,60.1,47,30.16,10.0,Calm,Calm,-,N/A,,Mostly Cloudy,0,2012-11-12 20:53:00
4:53 PM,80.1,60.1,50,30.16,10.0,NE,4.6,-,N/A,,Overcast,50,2012-11-12 21:53:00
5:53 PM,75.9,63.0,64,30.16,10.0,NW,8.1,-,N/A,,Mostly Cloudy,320,2012-11-12 22:53:00
6:53 PM,75.0,63.0,66,30.18,10.0,North,6.9,-,N/A,,Overcast,360,2012-11-12 23:53:00
7:53 PM,72.0,66.0,81,30.19,7.0,Calm,Calm,-,0.08,Rain,Light Rain,0,2012-11-13 00:53:00
8:53 PM,73.0,66.9,81,30.20,10.0,Calm,Calm,-,0.00,,Mostly Cloudy,0,2012-11-13 01:53:00
9:53 PM,72.0,66.0,81,30.20,10.0,Calm,Calm,-,N/A,,Mostly Cloudy,0,2012-11-13 02:53:00
10:53 PM,71.1,66.0,84,30.19,10.0,Calm,Calm,-,N/A,,Scattered Clouds,0,2012-11-13 03:53:00
11:53 PM,70.0,66.0,87,30.18,10.0,Calm,Calm,-,N/A,,Mostly Cloudy,0,2012-11-13 04:53:00